Location: Wiesbaden
(50.0830°N, 8.2500°E)
Time: 00:34:34
(UTC+01:00)

ISS - Visible Passes

Search period start: 29 November 2023 00:00
Search period end: 09 December 2023 00:00
Orbit: 416 x 418 km, 51.6° (Epoch: 28 November)

Date Brightness Start Highest point End Pass type
(mag) Time Alt. Az. Time Alt. Az. Time Alt. Az.
29 Nov -3.9 18:16:48 10° WNW 18:20:11 85° NNE 18:21:00 49° E visible
29 Nov -0.2 19:53:45 10° W 19:53:55 11° W 19:53:55 11° W visible
30 Nov -3.8 17:28:27 10° WNW 17:31:49 72° N 17:34:46 13° E visible
30 Nov -2.2 19:05:17 10° W 19:07:42 34° WSW 19:07:42 34° WSW visible
01 Dec -3.3 18:16:52 10° WNW 18:20:11 59° SSW 18:21:32 31° SE visible
02 Dec -3.7 17:28:25 10° WNW 17:31:47 79° SSW 17:35:08 10° ESE visible
02 Dec -1.5 19:05:34 10° W 19:08:10 21° SW 19:08:24 21° SSW visible
03 Dec -2.0 18:16:51 10° W 18:19:51 30° SSW 18:22:32 12° SSE visible
04 Dec -2.6 17:28:13 10° W 17:31:27 44° SSW 17:34:39 10° SE visible
05 Dec -0.7 18:17:11 10° WSW 18:19:12 15° SW 18:21:11 10° S visible
06 Dec -1.1 17:28:07 10° W 17:30:47 22° SW 17:33:28 10° SSE visible
08 Dec 0.0 17:29:09 10° SW 17:29:47 10° SW 17:30:24 10° SW visible
